FW9241 Weather Reports


time (UTC)temp
F
wind
direction
speed
knots
gust
knots
rain 1hr
in
rain 24hr
in
rain mn
in
humidity
%
barometer
mb
20260510164559 66 323 0.9 2.6 0.00 0.26 0.00 64 1011.7
20260510163056 64 0 0.9 1.7 0.00 0.26 0.00 70 1011.9
20260510161556 63 0 0.0 0.9 0.00 0.26 0.00 76 1011.9
20260510160101 63 203 0.0 2.6 0.00 0.26 0.00 75 1012.0
20260510154555 65 250 0.9 3.5 0.00 0.27 0.00 73 1012.0
20260510153057 64 179 0.9 3.5 0.00 0.27 0.00 77 1012.1
20260510151559 63 259 0.9 2.6 0.00 0.27 0.00 80 1011.9
20260510150100 59 0 0.0 1.7 0.00 0.27 0.00 84 1012.1
20260510144602 58 99 0.0 1.7 0.00 0.29 0.00 85 1011.9
20260510143059 58 216 0.0 1.7 0.00 0.29 0.00 84 1011.8
20260510141604 58 0 0.0 2.6 0.00 0.29 0.00 85 1012.0
20260510140100 56 0 0.0 0.9 0.00 0.29 0.00 89 1012.0
20260510134608 55 269 0.0 0.9 0.00 0.30 0.00 89 1011.9
20260510133103 54 195 0.0 0.9 0.00 0.30 0.00 94 1011.8
20260510131608 51 0 0.0 0.9 0.00 0.30 0.00 95 1012.0
20260510130101 50 0 0.0 0.9 0.00 0.30 0.00 95 1012.0
20260510124610 50 0 0.0 0.0 0.00 0.31 0.00 95 1011.8
20260510123059 50 0 0.0 0.0 0.00 0.31 0.00 95 1011.8
20260510121555 49 0 0.0 0.9 0.00 0.31 0.00 95 1011.5
20260510120055 49 0 0.0 0.0 0.00 0.31 0.00 95 1011.7
20260510114555 49 0 0.0 0.0 0.00 0.32 0.00 95 1011.7
20260510113053 48 0 0.0 0.0 0.00 0.32 0.00 95 1011.5
20260510111553 48 0 0.0 0.0 0.00 0.32 0.00 95 1011.5
20260510110058 48 0 0.0 0.9 0.00 0.32 0.00 95 1011.5
20260510104554 48 0 0.0 0.9 0.00 0.39 0.00 95 1011.2
20260510103100 48 0 0.0 0.9 0.00 0.39 0.00 95 1011.1
20260510101606 48 252 0.0 0.9 0.00 0.39 0.00 95 1011.1
20260510100057 48 245 0.0 1.7 0.00 0.39 0.00 95 1010.6
20260510094556 48 242 0.0 1.7 0.00 0.45 0.00 95 1010.3
20260510093055 48 240 0.0 0.9 0.00 0.45 0.00 95 1010.0
20260510091554 48 248 0.0 0.9 0.00 0.45 0.00 95 1010.3
20260510090055 48 0 0.0 0.9 0.00 0.45 0.00 95 1010.5
20260510084555 47 0 0.0 0.0 0.00 0.52 0.00 95 1010.6
20260510083054 47 0 0.0 0.0 0.00 0.52 0.00 95 1010.9
20260510081558 47 0 0.0 0.0 0.00 0.52 0.00 95 1010.8
20260510080055 47 248 0.0 0.9 0.00 0.52 0.00 95 1010.8
20260510074556 47 0 0.0 0.9 0.00 0.52 0.00 95 1011.0
20260510073105 47 0 0.0 0.9 0.00 0.52 0.00 95 1010.8
20260510071558 47 0 0.0 0.9 0.00 0.52 0.00 95 1010.7
20260510070054 47 0 0.0 0.9 0.00 0.52 0.00 95 1010.5
20260510064557 47 0 0.0 1.7 0.00 0.52 0.00 95 1010.6
20260510063058 47 240 0.0 0.9 0.00 0.52 0.00 95 1010.5
20260510061605 47 0 0.0 0.0 0.00 0.52 0.00 95 1010.5
20260510060059 47 0 0.0 0.0 0.00 0.52 0.00 95 1010.2
20260510054606 47 0 0.0 0.9 0.00 0.52 0.00 95 1010.1
20260510053055 47 0 0.0 0.9 0.00 0.52 0.00 95 1010.2
20260510051601 46 0 0.0 0.0 0.00 0.52 0.00 95 1010.4
20260510050057 46 0 0.0 0.0 0.00 0.52 0.00 94 1010.6
20260510044556 46 0 0.0 0.9 0.00 0.52 0.00 94 1010.6
20260510043056 47 0 0.0 0.0 0.00 0.52 0.00 94 1010.3
20260510041629 48 0 0.0 0.9 0.00 0.52 0.00 95 1010.5
20260510040100 48 0 0.0 0.0 0.00 0.52 0.00 95 1010.5
20260510034559 48 0 0.0 0.0 0.00 0.52 0.52 95 1010.7
20260510033106 48 0 0.0 0.0 0.00 0.52 0.52 95 1010.6
20260510031556 49 0 0.0 0.9 0.00 0.52 0.52 95 1010.7
20260510030055 49 0 0.0 0.9 0.00 0.52 0.52 95 1010.8
20260510024609 49 0 0.0 0.9 0.00 0.52 0.52 95 1010.7
20260510023059 49 207 0.0 0.9 0.00 0.52 0.52 95 1010.6
20260510021555 49 243 0.0 0.9 0.00 0.52 0.52 95 1010.4
20260510020054 49 0 0.0 0.9 0.00 0.52 0.52 94 1010.2
20260510014615 49 0 0.0 0.9 0.00 0.52 0.52 94 1010.8
20260510013104 49 0 0.0 0.9 0.00 0.52 0.52 94 1011.0
20260510011553 49 0 0.0 1.7 0.00 0.52 0.52 94 1010.9
20260510010054 49 241 0.0 0.9 0.00 0.52 0.52 94 1010.6
20260510004603 49 0 0.0 1.7 0.00 0.52 0.52 94 1010.1
20260510003055 49 0 0.0 0.9 0.00 0.52 0.52 94 1010.0
20260510001556 49 330 0.0 0.9 0.00 0.52 0.52 94 1009.7
20260510000056 49 226 0.0 0.9 0.00 0.52 0.52 94 1009.6
20260509234556 49 0 0.0 0.9 0.00 0.52 0.52 94 1009.6
20260509233056 49 231 0.0 0.9 0.00 0.52 0.52 94 1009.7
20260509231607 49 0 0.0 0.9 0.00 0.52 0.52 94 1009.7
20260509230058 49 209 0.0 0.9 0.01 0.52 0.52 94 1009.7
20260509224601 49 236 0.0 0.9 0.03 0.52 0.52 94 1009.9
20260509223103 49 0 0.0 1.7 0.05 0.52 0.52 94 1009.7
20260509221558 49 245 0.0 1.7 0.07 0.52 0.52 93 1009.8
20260509220058 49 172 0.0 0.9 0.07 0.52 0.52 93 1009.8
20260509214557 49 0 0.0 1.7 0.06 0.50 0.50 93 1009.9
20260509213057 49 245 0.0 2.6 0.05 0.48 0.48 93 1009.8
20260509211601 49 0 0.0 0.9 0.05 0.46 0.46 93 1009.9
20260509210106 50 0 0.0 1.7 0.07 0.45 0.45 93 1010.2
20260509204552 50 0 0.0 1.7 0.08 0.44 0.44 93 1010.4
20260509203053 50 284 0.0 1.7 0.08 0.43 0.43 93 1010.6
20260509201556 50 0 0.0 0.0 0.08 0.41 0.41 93 1010.7
20260509200056 50 0 0.0 0.9 0.06 0.38 0.38 93 1010.9
20260509194553 50 0 0.0 0.9 0.05 0.36 0.36 93 1010.8
20260509193054 50 0 0.0 1.7 0.05 0.35 0.35 93 1011.0
20260509191554 50 0 0.0 0.9 0.04 0.33 0.33 93 1010.9
20260509190055 50 0 0.0 0.0 0.03 0.32 0.32 92 1010.8
20260509184553 50 0 0.0 0.9 0.02 0.31 0.31 92 1010.9
20260509183055 50 0 0.0 0.9 0.01 0.30 0.30 92 1011.0
20260509181554 49 0 0.0 0.9 0.00 0.29 0.29 92 1010.8
20260509180055 49 243 0.0 0.9 0.00 0.29 0.29 91 1010.9
20260509174553 49 131 0.0 0.9 0.01 0.29 0.29 92 1011.1
20260509173118 49 0 0.0 0.9 0.01 0.29 0.29 92 1011.1
20260509171602 48 244 0.0 0.9 0.02 0.29 0.29 92 1011.4
20260509170119 47 0 0.0 0.0 0.02 0.29 0.29 92 1011.4